Regional Weather Roundup
Issued by NWS

Home | Current Version | Previous Version | Graphics & Text | Print | Product List | Glossary On
Versions: 1 2 3 4 5 6 7 8 9 10 11 12 13 14 15 16 17 18 19 20 21 22 23 24 25 26 27 28 29 30 31 32 33 34 35 36 37 38 39 40 41 42 43 44 45 46 47 48 49 50
000
ASUS45 KTFX 251110
RWRMT
MONTANA REGIONAL WEATHER ROUNDUP
NATIONAL WEATHER SERVICE GREAT FALLS MT
500 AM MDT WED APR 25 2018

NOTE: "FAIR" INDICATES FEW OR NO CLOUDS BELOW 12000 FEET WITH NO
SIGNIFICANT WEATHER AND/OR OBSTRUCTIONS TO VISIBILITY.

MTZ001>007-043-251200-
WEST OF THE DIVIDE

CITY           SKY/WX    TMP DP  RH WIND       PRES   REMARKS
KALISPELL      FAIR      33  30  88 CALM      30.12F
MISSOULA       FAIR      35  26  69 N3        30.18S
BUTTE          FAIR      26  20  77 CALM      30.25F
MULLAN PASS    FAIR      46  21  37 SW8G18    30.16F
ANACONDA         N/A     39  18  41 S10       30.21F
DEER LODGE       N/A     37  19  48 S6        30.21F
HAMILTON         N/A     43  21  42 MISG      30.16F
PLAINS           N/A     34  27  76 CALM      30.13F
RONAN            N/A     36  32  87 NE3       30.13
$$

MTZ008-052>055-251200-
SOUTHWEST MONTANA

CITY           SKY/WX    TMP DP  RH WIND       PRES   REMARKS
BOZEMAN        FAIR      29  25  85 SE7       30.24F WCI  22
DILLON         FAIR      33  25  72 S12       30.26F WCI  24
ENNIS          CLEAR     36  19  51 S14       30.29F WCI  27
W YELLOWSTONE  FAIR      14  12  92 CALM      30.34S
THREE FORKS      N/A     29  27  92 CALM      30.20F
TWIN BRIDGES     N/A     30  20  66 SE5       30.21F
$$

MTZ009-010-012-014-046-048-049-054-251200-
EAST SLOPES AND CENTRAL MONTANA

CITY           SKY/WX    TMP DP  RH WIND       PRES   REMARKS
CUT BANK       FAIR      48  23  37 W9        30.04F
GREAT FALLS    FAIR      48  22  35 S18       30.06F
MALMSTROM AFB  FAIR      48  21  34 SW18      30.06F
HELENA         FAIR      33  27  78 CALM      30.19F
AUGUSTA        MOCLDY    44  20  37 CALM      30.08F
BOWMANS CRNR   MOCLDY    44  23  43 S23       30.08S
CHOTEAU          N/A     48  19  32 SW5       30.08S
FAIRFIELD      MOCLDY    46  23  40 S17       30.07S
POWER          FAIR      42  23  45 SW9       30.06F
RAYNESFORD     FAIR      53  15  22 S16       30.09F
ULM            FAIR      47  24  41 SW15      30.09F
WHITE SULPHUR    N/A     34  23  64 SE8       30.19F WCI  27
$$

MTZ011-013-016-021-045-047-050-051-251200-
NORTH CENTRAL MONTANA

CITY           SKY/WX    TMP DP  RH WIND       PRES   REMARKS
HAVRE          FAIR      43  29  57 W9        30.02F
LEWISTOWN      FAIR      30  23  75 SE7       30.10F WCI  23
N BAR RANCH    FAIR      32  16  51 W7        30.13F WCI  26
CHINOOK          N/A     41  32  70 CALM      30.00F
GEYSER         FAIR      39  16  38 SW5       30.08F
GRASS RANGE    FAIR      40  21  45 SW16      30.05F
STANFORD       FAIR      43   9  25 CALM      30.09F
$$

MTZ017>020-022>027-061-062-251200-
NORTHEAST MONTANA

CITY           SKY/WX    TMP DP  RH WIND       PRES   REMARKS
GLASGOW        FAIR      39  32  76 SE10      30.03F
GLENDIVE       FAIR      35  30  82 S13       30.15F WCI  26
JORDAN           N/A     42  31  64 SW12      30.08F
MALTA          CLEAR     39  34  81 CALM      30.01F
SIDNEY         FAIR      36  29  75 SW9       30.14F WCI  29
WOLF POINT     FAIR      36  28  73 CALM      30.07F
PLENTYWOOD       N/A     45  27  49 MISG      30.06F
POPLAR           N/A     43  28  56 SW8       30.08F
SCOBEY           N/A     41  27  57 SE6       30.01F
$$

MTZ028>42-056>058-251200-
SOUTHCENTRAL AND SOUTHEAST MONTANA

CITY           SKY/WX    TMP DP  RH WIND       PRES   REMARKS
BAKER          FAIR      37  28  70 CALM      30.20F
BILLINGS       FAIR      42  28  57 SW18      30.17F
LIVINGSTON     FAIR      43  21  41 W20G30    30.21F
MILES CITY     FAIR      33  30  88 S12       30.16F WCI  24
BIG TIMBER     CLEAR     37  25  60 SW16      30.20F WCI  28
EKALAKA          N/A     40  23  50 SE6       30.16F
FORSYTH          N/A     39  28  65 S3        30.16F
HARLOWTON      FAIR      35  26  71 SW3       30.16F
LAUREL           N/A     43  28  56 SW21      30.19F
$$

REGIONAL REPORTS...DAKOTAS

CITY           SKY/WX    TMP DP  RH WIND       PRES   REMARKS
WILLISTON      FAIR      38  31  76 SW7       30.12F
MINOT          FAIR      42  30  62 SW14      30.12F
DICKINSON      FAIR      33  28  81 S14       30.18F WCI  23
BEACH          FAIR      36  30  80 S10       30.21F WCI  28
CROSBY         FAIR      39  34  81 S13       30.07F WCI  32
TIOGA          FAIR      36  36 100 SW7       30.12F WCI  30
WATFORD CITY   FAIR      36  28  75 W3        30.14F
BISMARCK       FAIR      31  27  85 CALM      30.24F
GRAND FORKS    FAIR      32  30  92 S10       30.20F WCI  24
FARGO          FAIR      29  27  92 S8        30.27S WCI  21
BUFFALO SD       N/A     33  25  72 W6        30.17  WCI  28
RAPID CITY     FAIR      28  21  75 S6        30.29F WCI  22
$$

REGIONAL REPORTS...WYOMING/IDAHO/WASHINGTON

CITY           SKY/WX    TMP DP  RH WIND       PRES   REMARKS
GILLETTE       FAIR      29  23  78 SE8       30.24F WCI  21
SHERIDAN       FAIR      24  20  84 W3        30.21F
BUFFALO WY     FAIR      33   9  36 CALM      30.22F
CODY           FAIR      37  19  48 SW5       30.27F
YELLOWSTONE LA   N/A     13  10  88 CALM      30.39F
IDAHO FALLS    FAIR      30  28  92 N5        30.29F
SALMON         FAIR      32  26  78 S3        30.27F
BOISE          FAIR      49  31  49 SE10      30.17S
SPOKANE        MOCLDY    47  35  63 CALM      30.09R
$$

REGIONAL REPORTS...ALBERTA

CITY           SKY/WX    TMP DP  RH WIND       PRES   REMARKS
CALGARY        MOCLDY    45  21  39 N14       30.07R
CARDSTON         N/A     46  19  34 W2          N/A
EDMONTON       CLOUDY    46  25  42 W10       30.04S
FORT MCMURRAY  CLEAR     34  27  75 SW7       29.95S WCI  28
HIGH LEVEL     CLEAR     28  25  86 VRB2      29.99R
LETHBRIDGE     CLOUDY    50  23  34 SW17      29.98F
LLOYDMINSTER   PTCLDY    46  32  57 NW12G17   29.94S
MEDICINE HAT   MOCLDY    45  28  53 SW9       29.94S
PEACE RIVER    PTCLDY    39  25  56 NW8       30.07R
PINCHER CREEK  MOCLDY    45  21  39 W6        30.03F
WATERTON GATE    N/A     48  19  32 SW6         N/A
$$

REGIONAL REPORTS...SASKATCHEWAN

CITY           SKY/WX    TMP DP  RH WIND       PRES   REMARKS
CORONACH         N/A     41  30  65 S5          N/A
CYPRESS HILLS    N/A     50  10  20 W9G17       N/A
ESTEVAN        CLOUDY    37  30  75 SW12      30.05F WCI  30
MOOSE JAW        N/A     45  28  53 S21         N/A
PRINCE ALBERT  CLOUDY    39  30  70 SW5       29.85S
REGINA         MOCLDY    39  28  65 S12       29.92F WCI  32
ROCKGLEN         N/A     39  28  65 SW17        N/A  WCI  30
SASKATOON      CLOUDY    37  30  75 NW7       29.86S
SWIFT CURRENT  MOCLDY    48  25  40 SW20G25   29.88F
VAL MARIE        N/A     39  30  70 SW5         N/A
$$



USA.gov is the U.S. government's official web portal to all federal, state and local government web resources and services.